Theta_e
297 299 310 320 326 341 340 344 344 345 343 340 340 342 343 345 346 345 345 345 345 345 345 345 343 343 342 342 341 341 341 340 340 339 339 339 339 338 338 339 337 332 337
297 299 310 316 331 340 342 343 343 344 342 339 337 339 342 342 343 344 344 344 344 344 343 342 342 341 341 340 340 340 341 339 338 338 339 339 340 338 337 337 339 336 337
296 300 304 315 338 341 342 342 343 342 339 337 338 338 338 339 340 341 342 342 342 343 342 342 342 341 340 339 339 338 338 337 336 336 339 333 333 337 337 336 336 338 338
296 301 304 321 338 340 340 339 340 340 340 339 337 335 336 336 336 338 338 338 339 339 340 340 339 339 338 338 338 337 337 335 333 332 328 333 334 338 336 334 334 334 335
296 300 302 320 331 336 337 337 337 336 337 338 338 338 338 338 338 337 337 336 336 336 335 335 336 336 335 335 335 334 333 331 330 325 323 330 331 335 336 334 332 332 333
297 299 302 315 324 331 332 333 334 334 334 335 335 334 334 334 335 334 335 336 336 336 337 336 335 335 334 333 332 332 331 330 325 317 319 327 329 335 334 334 334 333 333
296 298 299 310 316 321 326 327 328 328 329 328 328 328 328 328 329 329 331 331 332 333 333 333 332 334 335 334 334 334 332 330 322 318 317 317 326 335 333 333 334 334 334
294 297 298 302 307 312 316 320 321 321 321 321 320 320 321 321 321 323 324 324 325 326 326 326 327 328 329 329 328 329 329 329 323 319 319 318 328 335 335 335 336 336 334
294 295 296 298 300 303 307 310 312 314 314 314 313 312 311 312 314 314 316 318 319 320 320 319 319 319 321 322 323 322 326 326 318 318 320 320 327 333 336 335 335 336 335
293 294 295 295 297 297 298 303 304 306 307 307 307 305 304 304 305 307 307 309 312 312 313 313 312 312 313 315 316 315 319 318 319 319 319 322 331 335 336 336 335 335 336
292 293 293 294 295 296 296 297 299 300 301 301 300 301 298 296 297 298 302 303 305 305 307 307 307 306 306 307 307 307 307 302 307 312 319 320 327 335 336 335 336 335 335
289 291 292 293 293 294 294 295 295 295 295 294 295 294 294 293 294 295 296 299 299 299 301 302 302 301 299 298 296 299 297 299 302 305 310 317 325 331 335 335 335 334 334
289 290 291 292 293 293 293 293 293 293 293 293 293 293 293 292 291 291 292 292 291 294 291 292 292 292 293 294 293 294 296 298 300 304 309 317 326 332 333 333 334 335 334
289 290 291 292 292 293 293 292 292 292 292 291 291 292 292 290 289 289 289 290 290 290 289 289 289 290 290 291 291 291 293 295 298 302 305 313 319 322 323 324 326 329 332
288 289 290 292 291 292 292 292 292 292 292 291 292 292 291 289 288 288 288 289 289 288 288 288 288 288 288 288 289 290 290 292 296 295 297 306 310 310 311 312 315 318 318
288 289 291 291 292 291 291 291 291 291 291 291 291 291 291 290 289 288 287 288 288 287 287 287 286 286 286 287 287 289 288 291 292 291 294 297 303 302 304 307 309 310 311
288 289 290 291 291 291 290 290 290 290 290 290 290 290 289 289 288 287 287 287 287 287 286 286 285 286 285 286 286 287 287 290 289 289 291 293 293 296 298 301 304 306 307
288 288 290 291 290 290 290 290 290 290 289 289 289 289 289 288 288 287 286 286 287 286 286 285 284 284 283 284 284 285 285 290 287 287 290 289 290 289 293 297 299 301 303
288 288 288 289 289 290 290 290 290 289 289 289 289 288 288 288 288 286 286 286 286 285 284 284 283 283 282 283 284 285 285 288 285 287 287 287 288 288 289 292 295 295 298
287 287 288 289 288 289 289 289 289 289 289 287 287 288 288 288 287 286 285 285 286 284 284 284 282 283 282 282 284 284 284 287 284 284 285 287 286 287 287 288 289 290 295
285 286 286 287 287 287 287 286 284 284 285 285 287 288 288 287 287 285 284 284 285 284 283 283 282 281 281 283 281 281 283 283 282 283 283 285 284 287 285 287 288 289 289
284 284 285 285 285 286 285 285 285 284 285 285 287 287 288 287 287 287 285 284 284 283 283 282 282 280 280 282 279 279 277 279 281 282 282 284 283 284 284 286 286 288 288
282 283 284 285 285 285 287 287 286 286 285 285 286 286 287 288 288 287 286 285 284 284 282 282 281 280 279 280 281 279 276 275 277 280 281 282 282 282 283 284 285 286 286
281 282 283 284 284 286 286 285 283 282 281 283 284 285 285 286 285 286 285 284 283 283 282 281 282 280 280 278 280 282 281 279 276 275 278 280 281 281 282 282 284 284 284
282 281 282 283 284 284 284 283 282 282 282 283 283 283 283 284 285 285 285 283 283 283 282 281 280 280 280 279 278 279 279 279 278 276 273 276 279 280 281 281 282 283 284
281 282 282 283 283 284 284 284 283 282 282 282 282 282 282 283 283 284 284 283 283 282 282 281 281 280 279 279 279 279 279 277 276 276 274 275 275 277 279 280 281 282 283
Wind_Speed
13 24 32 32 33 24 7 15 16 16 17 16 17 16 17 18 18 15 15 14 13 15 15 16 15 14 14 13 13 12 12 12 12 10 9 9 11 11 11 11 9 6 12
18 21 31 33 37 7 14 17 17 16 16 17 17 16 17 17 20 19 16 15 15 15 15 16 15 14 13 13 13 12 12 13 14 12 2 7 8 9 9 9 9 7 9
18 19 21 33 9 15 19 19 17 18 17 17 18 18 18 17 17 18 19 18 17 16 15 16 15 14 13 14 14 15 15 16 16 15 6 4 3 7 8 7 7 7 9
17 16 18 30 20 22 22 21 21 21 19 18 18 19 19 19 18 18 19 18 17 16 17 16 15 13 12 12 13 14 14 14 14 13 5 3 3 6 8 6 6 6 7
13 15 17 28 27 22 21 20 21 20 20 21 22 22 22 22 21 20 20 18 17 16 15 14 14 14 14 14 14 15 15 14 12 8 6 3 4 5 7 5 4 4 5
13 14 17 25 26 22 21 20 21 21 21 21 21 22 21 22 23 22 20 20 21 20 19 17 15 14 14 15 15 15 15 15 10 6 6 5 4 7 5 4 3 2 3
10 12 12 21 23 24 21 21 20 21 20 20 21 21 21 21 22 21 21 21 21 18 18 17 17 18 15 16 17 16 15 13 7 6 6 6 5 9 6 4 4 4 5
9 11 10 17 20 23 22 22 22 22 21 21 22 22 22 23 22 22 22 21 20 19 20 19 19 18 18 18 19 20 17 11 7 6 6 5 8 9 9 7 8 6 6
9 9 11 9 15 19 21 22 22 23 22 22 22 22 23 23 24 23 23 21 21 21 21 21 21 20 18 18 19 21 18 13 7 5 7 5 11 11 11 10 9 7 8
11 11 11 9 7 9 11 21 22 23 21 22 22 22 21 21 22 24 23 23 22 23 22 22 22 22 20 20 21 21 17 14 9 8 7 10 22 17 15 13 11 10 10
11 12 11 11 9 7 8 11 15 21 22 22 18 22 16 10 12 15 21 23 24 23 24 24 24 22 21 19 21 20 15 8 9 7 6 23 23 21 19 17 14 13 12
14 11 11 10 10 9 10 9 10 11 11 11 12 13 9 11 11 13 17 24 24 24 24 24 24 22 18 9 9 14 8 9 7 7 6 23 23 21 21 20 20 17 15
12 11 13 10 11 11 9 7 6 6 7 8 13 10 8 8 8 9 8 9 10 17 10 13 13 10 13 10 10 9 10 9 6 6 9 21 25 24 23 23 21 22 20
13 12 12 12 11 10 7 7 7 8 8 8 10 12 9 7 9 9 8 9 9 8 11 10 8 11 11 12 11 11 11 9 7 6 9 20 24 27 28 30 30 31 30
12 13 12 11 10 9 10 7 8 9 8 9 9 12 9 8 9 8 8 8 8 8 9 9 9 10 11 12 11 11 11 10 10 7 6 20 24 27 29 29 28 28 29
12 11 10 11 9 9 9 10 7 7 8 9 9 10 11 8 7 7 7 8 8 8 7 7 8 8 8 10 11 10 10 9 10 12 9 9 23 27 30 30 29 29 29
7 9 8 7 8 9 9 8 7 8 8 8 8 10 10 9 8 8 7 7 7 7 8 7 8 7 8 9 9 8 7 8 9 12 9 8 10 22 27 30 29 29 30
4 7 7 6 6 7 6 5 6 7 6 6 5 5 8 8 8 7 7 7 6 6 7 7 8 8 9 9 8 7 5 5 8 10 7 7 8 10 16 29 28 27 29
0 2 4 4 4 5 5 5 7 7 5 5 5 5 7 8 8 6 6 6 5 6 7 7 7 6 9 10 8 7 4 3 6 8 10 8 10 11 9 20 24 24 27
2 1 1 2 3 3 2 4 4 3 4 4 4 4 6 5 7 5 5 6 6 6 7 8 7 7 6 9 8 6 4 2 6 7 6 6 10 11 13 13 11 12 25
4 3 0 2 3 2 2 1 1 3 2 3 3 5 5 5 5 6 4 5 5 6 6 8 6 7 8 12 4 3 4 4 9 10 5 4 12 10 14 11 9 8 10
5 5 3 1 1 2 2 1 1 1 0 1 2 4 5 5 5 5 5 5 5 5 7 7 8 5 4 9 6 3 6 5 9 4 6 5 14 8 12 12 13 12 10
7 6 5 4 2 1 1 1 1 1 2 3 3 3 4 5 5 5 5 4 4 4 4 4 5 6 4 4 7 4 6 4 11 3 3 6 9 10 9 12 13 12 13
8 7 6 6 5 3 2 2 2 2 1 1 2 2 4 4 4 3 3 4 4 3 4 4 4 2 3 4 3 4 1 4 4 10 4 11 10 11 11 9 10 13 13
7 7 7 6 6 5 4 3 2 2 2 2 2 3 3 3 3 2 3 3 4 3 3 5 5 5 2 2 2 2 2 3 5 4 12 15 11 11 10 10 12 9 12
7 7 7 7 7 6 6 6 6 6 5 3 3 3 3 2 3 3 2 1 2 2 3 3 3 4 3 2 2 2 2 2 5 6 10 14 15 11 12 11 10 10 10
Wind_Direction
328 324 326 331 325 316 99 86 77 75 71 66 65 64 65 58 61 66 65 65 71 71 73 71 71 67 60 56 53 48 41 32 26 23 44 58 59 56 59 56 49 39 46
319 321 323 329 319 96 87 83 81 77 75 71 70 66 61 64 60 60 61 61 63 75 76 71 65 58 51 42 37 34 33 29 17 3 34 56 58 55 54 55 44 35 47
330 323 324 326 349 82 77 77 76 73 73 75 73 69 66 61 61 60 56 59 58 58 61 63 56 47 42 35 28 25 24 25 15 10 68 85 66 54 48 52 41 32 35
324 331 331 340 19 67 68 68 68 67 66 70 71 71 70 67 61 57 53 45 43 47 46 47 45 38 36 32 22 17 17 22 19 17 8 33 14 40 39 36 35 25 22
341 340 337 356 12 53 61 65 71 70 67 66 63 59 61 58 54 57 53 51 52 48 42 38 37 30 25 21 15 10 7 11 15 9 8 355 337 353 30 40 36 23 9
354 348 348 5 17 37 55 61 70 70 68 66 69 63 58 55 54 51 45 44 43 38 35 33 31 27 22 18 12 7 1 360 13 359 351 328 324 315 13 22 18 10 341
2 351 357 9 22 33 47 56 63 67 68 67 66 64 63 59 55 51 49 45 43 37 37 34 30 25 23 20 10 360 351 352 0 350 341 338 313 314 339 346 337 329 321
6 4 354 17 21 32 41 51 59 63 64 65 62 60 56 55 53 50 49 46 42 39 37 34 30 27 25 23 18 8 356 348 353 346 338 334 316 309 320 330 331 302 304
10 31 357 57 26 24 32 49 53 58 58 61 59 57 55 53 51 45 44 42 42 37 35 34 30 26 25 24 18 13 10 19 4 344 344 337 327 310 313 323 328 313 298
18 27 19 25 72 42 23 35 49 54 53 52 54 53 50 44 46 43 39 37 39 37 34 31 30 25 22 22 20 14 10 17 5 2 360 3 352 330 317 318 321 324 306
19 23 33 13 21 36 55 48 36 44 47 44 42 46 43 37 36 34 38 37 37 34 33 30 30 26 22 15 15 15 12 7 6 4 360 0 354 348 333 325 322 319 311
21 13 22 27 25 30 41 25 40 40 38 36 35 37 35 39 36 39 31 32 30 26 26 26 26 21 21 10 5 13 10 1 4 358 12 359 355 349 339 332 323 314 309
15 16 16 21 28 32 29 27 31 36 38 37 31 33 33 38 32 32 27 22 19 18 17 15 15 17 12 7 6 7 3 2 0 356 4 5 14 14 9 354 339 324 308
2 18 16 22 28 30 33 33 35 44 40 42 34 33 36 37 36 35 31 22 21 12 14 15 12 6 7 4 5 4 2 3 3 4 4 7 20 25 19 15 12 8 7
9 360 18 17 28 37 42 37 39 41 44 51 42 42 37 36 37 34 32 28 21 12 14 16 12 5 2 360 1 4 5 1 6 12 7 12 22 22 20 15 10 6 3
351 6 7 23 26 41 47 49 47 45 43 50 43 43 40 43 38 34 30 26 21 11 7 11 9 1 2 356 355 360 4 4 20 18 16 12 22 20 15 11 8 4 1
344 358 12 31 29 48 43 55 58 53 45 46 41 37 38 35 38 35 32 27 15 3 8 18 12 10 4 360 357 355 0 5 26 18 17 17 15 15 10 7 5 0 358
14 0 12 43 21 52 54 53 56 50 47 44 33 37 40 41 38 45 36 26 8 12 16 16 15 9 7 2 344 350 358 12 26 20 11 13 17 10 7 3 2 358 356
219 39 40 29 32 40 53 57 59 52 48 47 47 39 33 39 38 45 39 23 13 19 17 12 14 7 8 356 340 341 355 31 28 21 6 11 17 10 2 355 356 354 353
201 206 130 78 33 33 38 43 44 55 48 38 37 45 33 34 34 39 36 25 21 29 21 12 9 7 9 352 327 329 328 3 22 22 0 11 9 6 358 350 346 341 346
186 182 182 68 38 48 41 23 21 22 8 24 28 36 42 34 39 36 33 32 23 30 18 18 356 2 7 359 317 320 324 345 4 1 342 6 7 0 350 343 340 332 334
197 202 195 150 65 35 61 48 89 197 41 37 9 32 35 32 27 40 32 22 23 22 21 22 25 360 359 7 352 295 357 329 18 354 1 5 355 344 340 337 331 326 329
210 211 213 205 183 110 93 92 55 45 24 18 359 0 5 14 21 30 32 30 29 27 22 14 26 25 3 335 23 26 348 339 327 342 330 11 334 336 326 327 320 319 322
216 208 217 207 205 217 178 119 107 135 144 250 260 304 325 345 352 20 29 37 31 18 27 12 24 16 9 17 339 23 197 265 327 324 319 323 336 324 321 311 311 313 310
207 209 212 215 216 223 205 183 169 209 230 251 285 298 301 304 331 335 5 19 15 11 11 19 5 10 26 331 1 334 290 265 253 279 307 324 319 320 314 316 307 299 299
209 207 210 212 226 222 215 216 210 220 237 253 266 274 281 278 296 292 298 282 344 358 358 359 358 355 341 323 295 292 274 301 297 296 299 306 306 313 318 302 301 298 299